When you browse on this site, cookies collect data to enhance your experience and personalize the content and advertising you see.
Visit our Privacy Policy to learn more. By continuing to use the site, you agree to this use of cookies and data.
  • en Suisse
  • Liste des pays
  • À 7 jours
  • Température de l'eau
  • Carte météo
  • Widgets météo
  • user-avatar
    Se connecter

    Météo par heure à Tignes

    Ce jour, 18 Novembre, Lundi

    Heure Température Précipitation Vent Pression Humidité
    00:00 -10°C° 0.4 mm 1 m/s 574 mmHg 93%
    01:00 -11°C° 0.1 mm 1 m/s 574 mmHg 92%
    02:00 -11°C° 0.1 mm 1 m/s 574 mmHg 91%
    03:00 -11°C° 0.1 mm 1 m/s 574 mmHg 91%
    04:00 -11°C° 0 mm 1 m/s 575 mmHg 90%
    05:00 -11°C° 0 mm 1 m/s 575 mmHg 89%
    06:00 -11°C° 0 mm 1 m/s 576 mmHg 88%
    07:00 -10°C° 0 mm 1 m/s 577 mmHg 87%
    08:00 -8°C° 0 mm 1 m/s 578 mmHg 85%
    09:00 -6°C° 0 mm 1 m/s 579 mmHg 83%
    10:00 -6°C° 0 mm 1 m/s 579 mmHg 83%
    11:00 -4°C° 0 mm 1 m/s 580 mmHg 83%
    12:00 -3°C° 0 mm 1 m/s 580 mmHg 83%
    13:00 -4°C° 0 mm 1 m/s 580 mmHg 87%
    14:00 -4°C° 0 mm 1 m/s 579 mmHg 91%
    15:00 -6°C° 0 mm 1 m/s 579 mmHg 94%
    16:00 -7°C° 0 mm 1 m/s 579 mmHg 94%
    17:00 -7°C° 0 mm 1 m/s 579 mmHg 93%
    18:00 -9°C° 0 mm 2 m/s 579 mmHg 92%
    19:00 -9°C° 0.1 mm 2 m/s 579 mmHg 92%
    20:00 -8°C° 0.1 mm 1 m/s 579 mmHg 92%
    21:00 -8°C° 0.1 mm 1 m/s 579 mmHg 92%
    22:00 -7°C° 0.2 mm 1 m/s 579 mmHg 92%
    23:00 -7°C° 0.2 mm 1 m/s 579 mmHg 93%

    Demain, 19 Novembre, Mardi

    Heure Température Précipitation Vent Pression Humidité
    00:00 -7°C° 0.2 mm 1 m/s 579 mmHg 93%
    01:00 -7°C° 0.3 mm 1 m/s 579 mmHg 93%
    02:00 -7°C° 0.3 mm 1 m/s 579 mmHg 93%
    03:00 -6°C° 0.3 mm 1 m/s 579 mmHg 94%
    04:00 -6°C° 0.9 mm 1 m/s 579 mmHg 94%
    05:00 -6°C° 0.9 mm 1 m/s 579 mmHg 95%
    06:00 -6°C° 0.9 mm 1 m/s 579 mmHg 95%
    07:00 -4°C° 0.6 mm 1 m/s 580 mmHg 94%
    08:00 -3°C° 0.6 mm 1 m/s 580 mmHg 94%
    09:00 -4°C° 0.6 mm 2 m/s 581 mmHg 93%
    10:00 -2°C° 0.4 mm 1 m/s 581 mmHg 94%
    11:00 -1°C° 0.4 mm 1 m/s 581 mmHg 94%
    12:00 -1°C° 0.4 mm 1 m/s 581 mmHg 94%
    13:00 -1°C° 0.2 mm 1 m/s 581 mmHg 95%
    14:00 -1°C° 0.2 mm 1 m/s 581 mmHg 96%
    15:00 -2°C° 0.2 mm 1 m/s 581 mmHg 97%
    16:00 -3°C° 0.1 mm 1 m/s 581 mmHg 96%
    17:00 -3°C° 0.1 mm 1 m/s 580 mmHg 96%
    18:00 -6°C° 0.1 mm 2 m/s 580 mmHg 95%
    19:00 -6°C° 0 mm 2 m/s 581 mmHg 95%
    20:00 -6°C° 0 mm 2 m/s 581 mmHg 94%
    21:00 -6°C° 0 mm 2 m/s 581 mmHg 94%
    22:00 -6°C° 0 mm 2 m/s 581 mmHg 94%
    23:00 -6°C° 0 mm 2 m/s 581 mmHg 94%

    Après-demain, 20 Novembre, Mercredi

    Heure Température Précipitation Vent Pression Humidité
    00:00 -6°C° 0 mm 2 m/s 581 mmHg 93%
    01:00 -6°C° 0 mm 2 m/s 581 mmHg 93%
    02:00 -6°C° 0 mm 2 m/s 581 mmHg 93%
    03:00 -6°C° 0 mm 2 m/s 581 mmHg 93%
    04:00 -6°C° 0 mm 2 m/s 581 mmHg 93%
    05:00 -6°C° 0 mm 2 m/s 581 mmHg 93%
    06:00 -6°C° 0 mm 2 m/s 581 mmHg 93%
    07:00 -5°C° 0 mm 2 m/s 582 mmHg 93%
    08:00 -4°C° 0 mm 2 m/s 582 mmHg 93%
    09:00 -3°C° 0 mm 2 m/s 583 mmHg 93%
    10:00 -3°C° 0 mm 2 m/s 583 mmHg 93%
    11:00 -2°C° 0 mm 2 m/s 583 mmHg 92%
    12:00 -2°C° 0 mm 2 m/s 583 mmHg 92%
    13:00 -3°C° 0 mm 2 m/s 582 mmHg 93%
    14:00 -3°C° 0 mm 2 m/s 582 mmHg 93%
    15:00 -4°C° 0 mm 2 m/s 581 mmHg 93%
    16:00 -4°C° 0 mm 2 m/s 581 mmHg 93%
    17:00 -5°C° 0 mm 2 m/s 581 mmHg 93%
    18:00 -5°C° 0 mm 2 m/s 581 mmHg 93%
    19:00 -5°C° 0.2 mm 2 m/s 581 mmHg 93%
    20:00 -5°C° 0.2 mm 2 m/s 581 mmHg 93%
    21:00 -5°C° 0.2 mm 2 m/s 581 mmHg 93%
    22:00 -5°C° 0.3 mm 2 m/s 581 mmHg 93%
    23:00 -5°C° 0.3 mm 2 m/s 581 mmHg 93%

    21 Novembre, Jeudi

    Heure Température Précipitation Vent Pression Humidité
    00:00 -5°C° 0.3 mm 2 m/s 581 mmHg 94%
    01:00 -6°C° 0.3 mm 2 m/s 581 mmHg 93%
    02:00 -6°C° 0.3 mm 2 m/s 580 mmHg 93%
    03:00 -6°C° 0.3 mm 2 m/s 580 mmHg 93%
    04:00 -6°C° 0.2 mm 2 m/s 580 mmHg 93%
    05:00 -6°C° 0.2 mm 2 m/s 580 mmHg 93%
    06:00 -6°C° 0.2 mm 2 m/s 580 mmHg 93%
    07:00 -6°C° 0.2 mm 2 m/s 580 mmHg 93%
    08:00 -5°C° 0.2 mm 2 m/s 581 mmHg 92%
    09:00 -5°C° 0.2 mm 3 m/s 581 mmHg 92%
    10:00 -4°C° 0.1 mm 2 m/s 581 mmHg 91%
    11:00 -3°C° 0.1 mm 2 m/s 581 mmHg 91%
    12:00 -3°C° 0.1 mm 2 m/s 582 mmHg 90%
    13:00 -3°C° 0.1 mm 2 m/s 581 mmHg 91%
    14:00 -4°C° 0.1 mm 2 m/s 581 mmHg 92%
    15:00 -5°C° 0.1 mm 2 m/s 580 mmHg 93%
    16:00 -6°C° 0 mm 2 m/s 580 mmHg 93%
    17:00 -7°C° 0 mm 2 m/s 579 mmHg 93%
    18:00 -9°C° 0 mm 3 m/s 579 mmHg 92%
    19:00 -9°C° 0 mm 3 m/s 579 mmHg 92%
    20:00 -8°C° 0 mm 3 m/s 580 mmHg 92%
    21:00 -8°C° 0 mm 3 m/s 580 mmHg 92%
    22:00 -8°C° 0 mm 3 m/s 580 mmHg 92%
    23:00 -8°C° 0 mm 3 m/s 580 mmHg 92%

    22 Novembre, Vendredi

    Heure Température Précipitation Vent Pression Humidité
    00:00 -8°C° 0 mm 3 m/s 580 mmHg 92%
    01:00 -7°C° 0 mm 3 m/s 580 mmHg 92%
    02:00 -7°C° 0 mm 3 m/s 580 mmHg 92%
    03:00 -7°C° 0 mm 3 m/s 580 mmHg 92%
    04:00 -7°C° 0.1 mm 3 m/s 580 mmHg 92%
    05:00 -7°C° 0.1 mm 3 m/s 580 mmHg 92%
    06:00 -7°C° 0.1 mm 3 m/s 580 mmHg 92%
    07:00 -6°C° 0.1 mm 3 m/s 580 mmHg 92%
    08:00 -6°C° 0.1 mm 3 m/s 580 mmHg 92%
    09:00 -5°C° 0.1 mm 3 m/s 581 mmHg 91%
    10:00 -4°C° 0.2 mm 3 m/s 581 mmHg 91%
    11:00 -2°C° 0.2 mm 3 m/s 581 mmHg 92%
    12:00 -2°C° 0.2 mm 3 m/s 581 mmHg 92%
    13:00 -2°C° 0.2 mm 3 m/s 580 mmHg 92%
    14:00 -4°C° 0.2 mm 3 m/s 580 mmHg 92%
    15:00 -4°C° 0.2 mm 4 m/s 579 mmHg 93%
    16:00 -5°C° 0.4 mm 4 m/s 579 mmHg 92%
    17:00 -5°C° 0.4 mm 4 m/s 579 mmHg 92%
    18:00 -5°C° 0.4 mm 4 m/s 578 mmHg 92%
    19:00 -5°C° 0.4 mm 4 m/s 578 mmHg 92%
    20:00 -7°C° 0.4 mm 4 m/s 578 mmHg 92%
    21:00 -7°C° 0.4 mm 4 m/s 578 mmHg 92%
    22:00 -7°C° 0.5 mm 4 m/s 577 mmHg 92%
    23:00 -7°C° 0.5 mm 4 m/s 577 mmHg 92%

    23 Novembre, Samedi

    Heure Température Précipitation Vent Pression Humidité
    00:00 -7°C° 0.5 mm 4 m/s 577 mmHg 92%
    01:00 -7°C° 1 mm 4 m/s 576 mmHg 92%
    02:00 -7°C° 1 mm 4 m/s 576 mmHg 92%
    03:00 -7°C° 1 mm 4 m/s 576 mmHg 93%
    04:00 -7°C° 1.2 mm 4 m/s 575 mmHg 92%
    05:00 -6°C° 1.2 mm 3 m/s 575 mmHg 92%
    06:00 -6°C° 1.2 mm 3 m/s 575 mmHg 92%
    07:00 -5°C° 1.2 mm 3 m/s 575 mmHg 93%
    08:00 -5°C° 1.2 mm 3 m/s 576 mmHg 93%
    09:00 -4°C° 1.2 mm 3 m/s 576 mmHg 93%
    10:00 -3°C° 1.4 mm 2 m/s 576 mmHg 94%
    11:00 -3°C° 1.4 mm 2 m/s 576 mmHg 94%
    12:00 -3°C° 1.4 mm 2 m/s 576 mmHg 95%
    13:00 -1°C° 2 mm 1 m/s 576 mmHg 96%
    14:00 -1°C° 2 mm 1 m/s 576 mmHg 96%
    15:00 -1°C° 2 mm 1 m/s 576 mmHg 97%
    16:00 -2°C° 0.8 mm 1 m/s 576 mmHg 96%
    17:00 -2°C° 0.8 mm 1 m/s 576 mmHg 96%
    18:00 -3°C° 0.8 mm 1 m/s 576 mmHg 95%
    19:00 -3°C° 0.2 mm 1 m/s 576 mmHg 95%
    20:00 -4°C° 0.2 mm 1 m/s 576 mmHg 94%
    21:00 -4°C° 0.2 mm 1 m/s 576 mmHg 94%
    22:00 -4°C° 0.1 mm 1 m/s 577 mmHg 93%
    23:00 -4°C° 0.1 mm 1 m/s 577 mmHg 93%
    Voir plus